Location: Perryvale
(54.4667°N, 113.3833°W)
Time: 00:09:19
(UTC+00:00)

Vanguard 3 - Pass Details

Date: 30 May 2024
Orbit: 509 x 3231 km, 33.3° (Epoch: 21 June)

Event Time Altitude Azimuth Distance (km) Brightness Sun altitude
Rises 05:26:09 0° 252° (WSW) 4,725 11.2 -9.1°
Reaches altitude 10° 05:31:02 10° 230° (SW) 4,277 10.7 -9.4°
Maximum altitude 05:36:39 15° 202° (SSW) 4,448 10.5 -9.8°
Drops below altitude 10° 05:43:29 10° 175° (S) 5,382 10.7 -10.3°
Enters shadow 05:44:28 - 172° (S) 5,553 10.8 -10.3°
